DAL2272 KLAX-KSFO

Flight info

Callsign DAL2272
Flight time 0h 53m
Altitude 34000
Route KLAX SUMMR2 STOKD DCT SERFR SERFR4 KSFO
Aircraft A321/M-V/N

Departure

Time 2026-05-07 17:58
Airport Los Angeles International Airport (KLAX)

Arrival

Time 2026-05-07 18:51
Airport San Francisco International Airport (KSFO)
Time Latitude Longitude Altitude Speed Heading
2026-05-07 17:48 33.94729 -118.40442 92 ft 0 kts 163°
2026-05-07 17:51 33.94730 -118.40442 92 ft 1 kts 163°
2026-05-07 17:51 33.94753 -118.40450 93 ft 4 kts 163°
2026-05-07 17:51 33.94773 -118.40458 93 ft 4 kts 151°
2026-05-07 17:52 33.94790 -118.40478 94 ft 4 kts 99°
2026-05-07 17:52 33.94789 -118.40507 93 ft 4 kts 82°
2026-05-07 17:52 33.94787 -118.40517 93 ft 0 kts 82°
2026-05-07 17:55 33.94788 -118.40512 93 ft 4 kts 82°
2026-05-07 17:55 33.94802 -118.40392 92 ft 21 kts 82°
2026-05-07 17:55 33.94868 -118.40287 93 ft 15 kts 18°
2026-05-07 17:56 33.94906 -118.40188 96 ft 13 kts 86°
2026-05-07 17:56 33.94913 -118.40081 93 ft 13 kts 85°
2026-05-07 17:56 33.94925 -118.39978 93 ft 12 kts 76°
2026-05-07 17:56 33.94954 -118.39922 93 ft 11 kts 37°
2026-05-07 17:57 33.95034 -118.39971 96 ft 18 kts 279°
2026-05-07 17:57 33.95028 -118.40076 95 ft 21 kts 264°
2026-05-07 17:57 33.94961 -118.40732 99 ft 101 kts 263°
2026-05-07 17:57 33.94853 -118.41785 96 ft 150 kts 263°
2026-05-07 17:58 33.94729 -118.43096 537 ft 154 kts 264°
2026-05-07 17:58 33.94609 -118.44376 1113 ft 157 kts 263°
2026-05-07 17:58 33.94473 -118.45709 1626 ft 162 kts 263°
2026-05-07 17:58 33.94349 -118.47097 1978 ft 175 kts 266°
2026-05-07 17:59 33.94281 -118.48655 2163 ft 197 kts 267°
2026-05-07 17:59 33.94228 -118.50396 2316 ft 219 kts 268°
2026-05-07 17:59 33.94133 -118.52338 2485 ft 245 kts 265°
2026-05-07 17:59 33.93980 -118.54457 2953 ft 260 kts 265°
2026-05-07 18:00 33.93802 -118.56651 3660 ft 266 kts 264°
2026-05-07 18:00 33.93616 -118.58883 4408 ft 270 kts 264°
2026-05-07 18:00 33.93430 -118.61137 5152 ft 273 kts 264°
2026-05-07 18:00 33.93246 -118.63396 5860 ft 276 kts 265°
2026-05-07 18:01 33.93061 -118.65714 6532 ft 280 kts 265°
2026-05-07 18:01 33.92876 -118.68068 7189 ft 284 kts 265°
2026-05-07 18:01 33.92692 -118.70444 7842 ft 287 kts 265°
2026-05-07 18:01 33.92505 -118.72849 8498 ft 289 kts 265°
2026-05-07 18:02 33.92127 -118.77722 9734 ft 295 kts 265°
2026-05-07 18:02 33.91937 -118.80190 10330 ft 299 kts 265°
2026-05-07 18:02 33.91740 -118.82780 10474 ft 321 kts 267°
2026-05-07 18:03 33.91758 -118.85542 10629 ft 339 kts 273°
2026-05-07 18:03 33.91848 -118.88430 11073 ft 349 kts 273°
2026-05-07 18:03 33.91940 -118.91365 11644 ft 354 kts 273°
2026-05-07 18:03 33.92030 -118.94346 12270 ft 358 kts 273°
2026-05-07 18:04 33.92117 -118.97362 12894 ft 362 kts 273°
2026-05-07 18:04 33.92405 -119.00376 13496 ft 364 kts 284°
2026-05-07 18:04 33.93194 -119.03276 14103 ft 365 kts 296°
2026-05-07 18:04 33.94439 -119.05945 14699 ft 367 kts 304°
2026-05-07 18:05 33.95799 -119.08547 15299 ft 370 kts 304°
2026-05-07 18:05 33.97171 -119.11189 15888 ft 372 kts 304°
2026-05-07 18:05 33.98548 -119.13850 16474 ft 376 kts 304°
2026-05-07 18:05 33.99945 -119.16519 17037 ft 378 kts 307°
2026-05-07 18:06 34.01632 -119.18936 17579 ft 377 kts 318°
2026-05-07 18:06 34.03665 -119.20921 18117 ft 377 kts 327°
2026-05-07 18:06 34.05814 -119.22746 18652 ft 379 kts 327°
2026-05-07 18:06 34.07974 -119.24596 19166 ft 382 kts 327°
2026-05-07 18:07 34.10142 -119.26466 19654 ft 385 kts 327°
2026-05-07 18:07 34.12326 -119.28355 20126 ft 388 kts 326°
2026-05-07 18:07 34.14528 -119.30256 20598 ft 390 kts 326°
2026-05-07 18:07 34.16746 -119.32170 21056 ft 393 kts 326°
2026-05-07 18:08 34.18979 -119.34095 21511 ft 396 kts 326°
2026-05-07 18:08 34.21226 -119.36033 21947 ft 398 kts 326°
2026-05-07 18:08 34.23485 -119.37982 22379 ft 401 kts 326°
2026-05-07 18:08 34.25765 -119.39948 22810 ft 403 kts 326°
2026-05-07 18:09 34.28053 -119.41923 23219 ft 406 kts 326°
2026-05-07 18:09 34.30357 -119.43920 23620 ft 408 kts 326°
2026-05-07 18:09 34.32663 -119.45921 24015 ft 411 kts 326°
2026-05-07 18:09 34.34993 -119.47943 24405 ft 413 kts 326°
2026-05-07 18:10 34.37329 -119.49968 24791 ft 415 kts 326°
2026-05-07 18:10 34.39683 -119.52008 25162 ft 417 kts 326°
2026-05-07 18:10 34.41929 -119.54237 25549 ft 420 kts 317°
2026-05-07 18:10 34.43990 -119.56759 25893 ft 422 kts 316°
2026-05-07 18:11 34.46053 -119.59298 26248 ft 424 kts 316°
2026-05-07 18:11 34.47425 -119.60989 26453 ft 425 kts 316°
2026-05-07 18:11 34.50209 -119.64417 26933 ft 427 kts 316°
2026-05-07 18:11 34.52299 -119.66988 27274 ft 429 kts 316°
2026-05-07 18:12 34.54398 -119.69569 27606 ft 431 kts 316°
2026-05-07 18:12 34.56502 -119.72161 27914 ft 432 kts 316°
2026-05-07 18:12 34.58613 -119.74766 28238 ft 434 kts 316°
2026-05-07 18:12 34.60727 -119.77383 28561 ft 435 kts 316°
2026-05-07 18:13 34.62851 -119.80014 28857 ft 437 kts 316°
2026-05-07 18:13 34.64981 -119.82655 29136 ft 438 kts 316°
2026-05-07 18:13 34.67118 -119.85303 29400 ft 440 kts 316°
2026-05-07 18:13 34.69265 -119.87964 29663 ft 441 kts 316°
2026-05-07 18:14 34.71416 -119.90633 29918 ft 443 kts 316°
2026-05-07 18:14 34.73572 -119.93309 30172 ft 445 kts 316°
2026-05-07 18:14 34.75745 -119.96007 30440 ft 446 kts 316°
2026-05-07 18:14 34.77917 -119.98705 30693 ft 447 kts 316°
2026-05-07 18:15 34.80099 -120.01415 30947 ft 449 kts 316°
2026-05-07 18:15 34.82283 -120.04128 31298 ft 448 kts 316°
2026-05-07 18:15 34.84460 -120.06835 31691 ft 447 kts 316°
2026-05-07 18:15 34.86627 -120.09536 32074 ft 445 kts 316°
2026-05-07 18:16 34.88761 -120.12201 32437 ft 444 kts 316°
2026-05-07 18:16 34.90911 -120.14890 32804 ft 443 kts 316°
2026-05-07 18:16 34.93052 -120.17567 33165 ft 441 kts 316°
2026-05-07 18:16 34.95196 -120.20245 33500 ft 440 kts 316°
2026-05-07 18:17 34.97326 -120.22910 33840 ft 439 kts 316°
2026-05-07 18:17 34.99457 -120.25580 34063 ft 439 kts 316°
2026-05-07 18:17 35.01566 -120.28225 34111 ft 432 kts 316°
2026-05-07 18:18 35.05717 -120.33446 34110 ft 427 kts 316°
2026-05-07 18:18 35.09871 -120.38625 34111 ft 427 kts 317°
2026-05-07 18:19 35.14209 -120.43554 34109 ft 426 kts 320°
2026-05-07 18:19 35.18638 -120.48381 34110 ft 427 kts 320°
2026-05-07 18:20 35.22331 -120.52453 34106 ft 427 kts 319°
2026-05-07 18:20 35.26678 -120.57322 34101 ft 427 kts 319°
2026-05-07 18:21 35.31071 -120.62290 34098 ft 427 kts 319°
2026-05-07 18:21 35.35409 -120.67194 34092 ft 427 kts 319°
2026-05-07 18:22 35.39777 -120.72129 34097 ft 427 kts 319°
2026-05-07 18:22 35.44152 -120.77074 34100 ft 427 kts 319°
2026-05-07 18:23 35.48542 -120.81987 34108 ft 427 kts 323°
2026-05-07 18:23 35.53263 -120.86374 34117 ft 426 kts 324°
2026-05-07 18:24 35.57994 -120.90762 34125 ft 426 kts 324°
2026-05-07 18:24 35.62718 -120.95156 34131 ft 426 kts 324°
2026-05-07 18:25 35.67445 -120.99558 34134 ft 426 kts 324°
2026-05-07 18:25 35.72168 -121.03951 34140 ft 426 kts 324°
2026-05-07 18:26 35.76892 -121.08358 34152 ft 426 kts 324°
2026-05-07 18:26 35.81609 -121.12768 34155 ft 426 kts 324°
2026-05-07 18:27 35.86326 -121.17188 34157 ft 425 kts 324°
2026-05-07 18:27 35.91034 -121.21601 34158 ft 425 kts 324°
2026-05-07 18:28 35.95744 -121.26018 34114 ft 428 kts 324°
2026-05-07 18:28 35.98134 -121.28261 33857 ft 433 kts 324°
2026-05-07 18:28 36.00521 -121.30505 33391 ft 430 kts 323°
2026-05-07 18:28 36.02888 -121.32738 32854 ft 427 kts 323°
2026-05-07 18:29 36.05244 -121.34960 32312 ft 425 kts 323°
2026-05-07 18:29 36.07635 -121.37090 31750 ft 422 kts 329°
2026-05-07 18:29 36.10118 -121.39022 31199 ft 420 kts 329°
2026-05-07 18:29 36.12586 -121.40948 30658 ft 418 kts 329°
2026-05-07 18:30 36.15042 -121.42865 30119 ft 416 kts 328°
2026-05-07 18:30 36.17481 -121.44769 29593 ft 414 kts 328°
2026-05-07 18:30 36.19914 -121.46668 29067 ft 413 kts 329°
2026-05-07 18:30 36.22340 -121.48560 28536 ft 411 kts 328°
2026-05-07 18:31 36.24746 -121.50440 28013 ft 408 kts 329°
2026-05-07 18:31 36.27140 -121.52314 27495 ft 406 kts 328°
2026-05-07 18:31 36.29520 -121.54178 26993 ft 403 kts 329°
2026-05-07 18:31 36.31880 -121.56030 26498 ft 400 kts 329°
2026-05-07 18:32 36.34217 -121.57866 26025 ft 396 kts 329°
2026-05-07 18:32 36.36531 -121.59685 25560 ft 393 kts 329°
2026-05-07 18:32 36.38827 -121.61494 25099 ft 389 kts 329°
2026-05-07 18:32 36.41097 -121.63279 24653 ft 385 kts 329°
2026-05-07 18:33 36.43347 -121.65047 24198 ft 381 kts 329°
2026-05-07 18:33 36.45573 -121.66798 23744 ft 377 kts 329°
2026-05-07 18:33 36.47756 -121.68515 23301 ft 374 kts 329°
2026-05-07 18:33 36.49972 -121.70254 22847 ft 371 kts 329°
2026-05-07 18:34 36.52113 -121.71944 22399 ft 368 kts 329°
2026-05-07 18:34 36.54263 -121.73646 21948 ft 365 kts 329°
2026-05-07 18:34 36.56397 -121.75334 21504 ft 362 kts 329°
2026-05-07 18:34 36.58555 -121.77045 20875 ft 365 kts 328°
2026-05-07 18:35 36.60659 -121.78714 20414 ft 362 kts 328°
2026-05-07 18:35 36.62810 -121.80416 19949 ft 360 kts 328°
2026-05-07 18:35 36.64891 -121.82062 19498 ft 358 kts 328°
2026-05-07 18:35 36.66992 -121.83724 19037 ft 357 kts 328°
2026-05-07 18:36 36.69101 -121.85398 18583 ft 354 kts 328°
2026-05-07 18:36 36.71142 -121.87022 18145 ft 352 kts 328°
2026-05-07 18:36 36.73217 -121.88614 17699 ft 348 kts 333°
2026-05-07 18:36 36.75439 -121.89753 17267 ft 345 kts 344°
2026-05-07 18:37 36.77761 -121.90432 16845 ft 341 kts 348°
2026-05-07 18:37 36.80076 -121.91067 16423 ft 339 kts 348°
2026-05-07 18:37 36.82375 -121.91705 16007 ft 337 kts 348°
2026-05-07 18:37 36.84655 -121.92339 15592 ft 335 kts 347°
2026-05-07 18:38 36.86918 -121.92976 15179 ft 333 kts 347°
2026-05-07 18:38 36.89168 -121.93609 14763 ft 331 kts 347°
2026-05-07 18:38 36.91407 -121.94238 14364 ft 329 kts 347°
2026-05-07 18:38 36.93631 -121.94863 13952 ft 327 kts 347°
2026-05-07 18:39 36.95842 -121.95511 13542 ft 325 kts 345°
2026-05-07 18:39 36.98015 -121.96277 13137 ft 323 kts 343°
2026-05-07 18:39 37.00155 -121.97114 12727 ft 322 kts 342°
2026-05-07 18:39 37.02274 -121.97978 12321 ft 320 kts 341°
2026-05-07 18:40 37.04388 -121.98844 11910 ft 319 kts 341°
2026-05-07 18:40 37.06494 -121.99695 11501 ft 317 kts 341°
2026-05-07 18:40 37.08595 -122.00533 11092 ft 317 kts 341°
2026-05-07 18:40 37.10700 -122.01361 10670 ft 316 kts 342°
2026-05-07 18:41 37.12793 -122.02177 10264 ft 314 kts 342°
2026-05-07 18:41 37.14845 -122.02975 10116 ft 303 kts 342°
2026-05-07 18:41 37.16839 -122.03750 9862 ft 297 kts 342°
2026-05-07 18:41 37.18785 -122.04512 9725 ft 289 kts 341°
2026-05-07 18:42 37.20680 -122.05257 9435 ft 284 kts 341°
2026-05-07 18:42 37.22563 -122.05996 9046 ft 282 kts 342°
2026-05-07 18:42 37.24432 -122.06729 8663 ft 281 kts 341°
2026-05-07 18:42 37.26295 -122.07460 8279 ft 279 kts 342°
2026-05-07 18:43 37.28143 -122.08187 7899 ft 278 kts 341°
2026-05-07 18:43 37.29951 -122.08897 7519 ft 265 kts 341°
2026-05-07 18:43 37.31666 -122.09571 7175 ft 251 kts 342°
2026-05-07 18:43 37.33315 -122.10220 6849 ft 246 kts 341°
2026-05-07 18:44 37.34947 -122.10862 6524 ft 245 kts 342°
2026-05-07 18:44 37.36568 -122.11500 6193 ft 244 kts 342°
2026-05-07 18:44 37.38183 -122.12128 5831 ft 243 kts 343°
2026-05-07 18:44 37.39807 -122.12699 5353 ft 240 kts 344°
2026-05-07 18:45 37.41417 -122.13233 4894 ft 238 kts 345°
2026-05-07 18:45 37.43010 -122.13756 4444 ft 236 kts 345°
2026-05-07 18:45 37.44587 -122.14274 4022 ft 230 kts 345°
2026-05-07 18:45 37.46130 -122.14784 3571 ft 231 kts 345°
2026-05-07 18:46 37.47661 -122.15292 3411 ft 220 kts 345°
2026-05-07 18:46 37.49101 -122.15774 3365 ft 211 kts 344°
2026-05-07 18:46 37.50513 -122.16247 3301 ft 210 kts 345°
2026-05-07 18:46 37.51882 -122.16705 3233 ft 195 kts 345°
2026-05-07 18:47 37.53070 -122.17316 3168 ft 176 kts 327°
2026-05-07 18:47 37.53950 -122.18302 3030 ft 167 kts 308°
2026-05-07 18:47 37.54540 -122.19537 2848 ft 162 kts 299°
2026-05-07 18:47 37.55068 -122.20782 2657 ft 160 kts 299°
2026-05-07 18:48 37.55583 -122.22004 2456 ft 159 kts 299°
2026-05-07 18:48 37.56100 -122.23232 2244 ft 158 kts 299°
2026-05-07 18:48 37.56614 -122.24451 2028 ft 157 kts 299°
2026-05-07 18:48 37.57122 -122.25657 1850 ft 150 kts 300°
2026-05-07 18:49 37.57604 -122.26802 1627 ft 145 kts 300°
2026-05-07 18:49 37.58073 -122.27915 1433 ft 143 kts 300°
2026-05-07 18:49 37.58537 -122.29018 1253 ft 141 kts 300°
2026-05-07 18:49 37.58993 -122.30102 1062 ft 137 kts 299°
2026-05-07 18:50 37.59438 -122.31156 874 ft 135 kts 299°
2026-05-07 18:50 37.59880 -122.32181 731 ft 133 kts 300°
2026-05-07 18:50 37.60336 -122.33241 478 ft 141 kts 299°
2026-05-07 18:50 37.60794 -122.34320 305 ft 141 kts 297°
2026-05-07 18:51 37.61233 -122.35424 159 ft 142 kts 297°
2026-05-07 18:51 37.61686 -122.36501 28 ft 130 kts 298°
2026-05-07 18:51 37.62024 -122.37302 22 ft 63 kts 298°
2026-05-07 18:51 37.62142 -122.37597 24 ft 26 kts 285°
2026-05-07 18:52 37.62076 -122.37782 23 ft 23 kts 229°
2026-05-07 18:52 37.61973 -122.37933 22 ft 22 kts 229°
2026-05-07 18:52 37.61861 -122.37995 22 ft 17 kts 162°
2026-05-07 18:52 37.61750 -122.37947 22 ft 16 kts 175°
2026-05-07 18:53 37.61642 -122.37979 22 ft 16 kts 208°
2026-05-07 18:53 37.61552 -122.38045 22 ft 12 kts 219°
2026-05-07 18:53 37.61526 -122.38138 23 ft 10 kts 259°
2026-05-07 18:53 37.61515 -122.38187 22 ft 2 kts 252°